GW7291 Weather Reports


Display with metric or nautical units.
time (UTC)temp
F
wind
direction
speed
MPH
gust
MPH
rain 1hr
in
rain 24hr
in
rain mn
in
humidity
%
barometer
mb
20260505213439 52 29 9.0 16.0 0.00 0.00 0.00 77 1009.1
20260505212935 52 26 9.0 11.0 0.00 0.00 0.00 77 1009.4
20260505212432 53 58 10.0 14.0 0.00 0.00 0.00 77 1009.5
20260505211928 53 44 9.0 18.0 0.00 0.00 0.00 77 1009.0
20260505211426 53 345 6.0 16.0 0.00 0.00 0.00 76 1008.9
20260505210922 53 30 4.0 17.0 0.00 0.00 0.00 77 1008.8
20260505210420 53 34 6.0 10.0 0.00 0.00 0.00 78 1009.1
20260505205916 53 38 5.0 9.0 0.00 0.00 0.00 78 1009.7
20260505205415 53 2 5.0 11.0 0.00 0.00 0.00 77 1009.7
20260505204911 53 18 10.0 14.0 0.00 0.00 0.00 77 1009.7
20260505204409 53 26 6.0 16.0 0.00 0.00 0.00 77 1009.5
20260505203906 53 9 7.0 10.0 0.00 0.00 0.00 77 1009.3
20260505203402 53 329 8.0 15.0 0.00 0.00 0.00 77 1009.2
20260505202859 53 0 8.0 13.0 0.00 0.00 0.00 77 1009.1
20260505202355 53 30 7.0 14.0 0.00 0.00 0.00 78 1009.1
20260505201851 53 54 3.0 13.0 0.00 0.00 0.00 78 1008.8
20260505201349 53 354 4.0 10.0 0.00 0.00 0.00 78 1008.9
20260505200847 53 46 11.0 15.0 0.00 0.00 0.00 78 1008.6
20260505200344 54 340 9.0 19.0 0.00 0.00 0.00 78 1008.8
20260505195839 53 343 8.0 15.0 0.00 0.00 0.00 78 1008.9
20260505195337 54 347 6.0 11.0 0.00 0.00 0.00 78 1008.5
20260505194834 54 39 9.0 15.0 0.00 0.00 0.00 78 1009.0
20260505194331 54 352 9.0 13.0 0.00 0.00 0.00 78 1008.8
20260505193831 53 5 10.0 14.0 0.00 0.00 0.00 79 1009.0
20260505193330 53 36 10.0 16.0 0.00 0.00 0.00 79 1008.9
20260505192827 53 18 13.0 17.0 0.00 0.00 0.00 82 1008.9
20260505192325 53 27 13.0 16.0 0.00 0.00 0.00 83 1008.8
20260505191823 53 0 6.0 11.0 0.00 0.00 0.00 84 1008.5
20260505191321 53 327 4.0 8.0 0.00 0.00 0.00 84 1008.5
20260505190817 53 44 7.0 13.0 0.00 0.00 0.00 84 1008.9
20260505190313 53 348 3.0 10.0 0.00 0.00 0.00 84 1008.6
20260505185809 53 40 6.0 11.0 0.00 0.00 0.00 84 1008.4
20260505185305 53 12 10.0 16.0 0.00 0.00 0.00 84 1008.6
20260505184801 54 347 8.0 13.0 0.00 0.00 0.00 84 1008.4
20260505184259 54 322 13.0 21.0 0.00 0.00 0.00 84 1008.4
20260505183755 54 339 9.0 15.0 0.00 0.00 0.00 84 1008.3
20260505183253 54 12 11.0 14.0 0.00 0.00 0.00 84 1008.1
20260505182749 54 28 11.0 16.0 0.00 0.00 0.00 84 1008.2
20260505182246 54 62 6.0 10.0 0.00 0.00 0.00 84 1008.2
20260505181742 55 49 5.0 13.0 0.00 0.00 0.00 84 1008.0
20260505181240 55 47 4.0 14.0 0.00 0.00 0.00 83 1007.9
20260505180736 55 316 7.0 16.0 0.00 0.00 0.00 83 1007.8
20260505180233 55 56 13.0 17.0 0.00 0.00 0.00 83 1007.7
20260505175729 55 348 7.0 15.0 0.00 0.00 0.00 83 1007.5
20260505175226 55 22 6.0 17.0 0.00 0.00 0.00 83 1007.9
20260505174723 55 45 12.0 19.0 0.00 0.00 0.00 83 1007.4
20260505174220 55 339 5.0 17.0 0.00 0.00 0.00 83 1007.3
20260505173716 55 66 8.0 11.0 0.00 0.00 0.00 83 1007.1
20260505173213 55 8 5.0 15.0 0.00 0.00 0.00 84 1007.4
20260505172710 55 19 8.0 11.0 0.00 0.00 0.00 84 1007.2
20260505172207 55 21 12.0 15.0 0.00 0.00 0.00 85 1007.3
20260505171706 55 14 9.0 14.0 0.00 0.00 0.00 85 1007.2
20260505171204 55 47 5.0 14.0 0.00 0.00 0.00 85 1007.3
20260505170700 55 358 11.0 14.0 0.00 0.00 0.00 85 1007.3
20260505170157 55 18 6.0 14.0 0.00 0.00 0.00 86 1007.2
20260505165658 55 22 5.0 11.0 0.00 0.00 0.00 85 1007.0
20260505165154 55 318 7.0 11.0 0.00 0.00 0.00 85 1006.9
20260505164649 55 24 8.0 15.0 0.00 0.00 0.00 86 1006.9
20260505164147 56 3 7.0 11.0 0.00 0.00 0.00 86 1006.4
20260505163645 55 25 6.0 9.0 0.00 0.00 0.00 86 1006.3
20260505163143 55 0 6.0 17.0 0.00 0.00 0.00 87 1006.3
20260505162640 55 333 9.0 13.0 0.00 0.00 0.00 87 1006.3
20260505162138 55 69 6.0 14.0 0.00 0.00 0.00 88 1006.0
20260505161634 56 18 12.0 15.0 0.00 0.00 0.00 88 1005.7
20260505161132 55 29 10.0 15.0 0.00 0.00 0.00 88 1005.3
20260505160629 56 5 8.0 14.0 0.00 0.00 0.00 88 1005.3
20260505160127 56 337 9.0 14.0 0.00 0.00 0.00 88 1005.6
20260505153107 59 25 4.0 15.0 0.00 0.00 0.00 88 1004.6
20260505152603 60 356 9.0 16.0 0.00 0.00 0.00 88 1004.5
20260505152058 60 33 7.0 11.0 0.00 0.00 0.00 88 1004.1
20260505151554 60 354 10.0 13.0 0.00 0.00 0.00 88 1004.2
20260505151052 60 19 8.0 18.0 0.00 0.00 0.00 88 1004.2
20260505150548 61 15 5.0 15.0 0.00 0.00 0.00 88 1003.9
20260505140513 67 41 3.0 4.0 0.00 0.00 0.00 89 1002.4
20260505124926 64 56 0.0 6.0 0.00 0.00 0.00 93 1001.8
20260505124423 64 32 4.0 9.0 0.00 0.00 0.00 93 1001.9
20260505123919 64 62 3.0 6.0 0.00 0.00 0.00 93 1001.9
20260505123416 64 39 2.0 7.0 0.00 0.00 0.00 93 1001.9
20260505122911 64 123 3.0 8.0 0.00 0.00 0.00 93 1001.7
20260505122409 64 48 3.0 4.0 0.00 0.00 0.00 93 1001.8
20260505121906 64 116 2.0 4.0 0.00 0.00 0.00 93 1001.5
20260505121403 64 36 5.0 10.0 0.00 0.00 0.00 93 1001.5
20260505120859 64 40 4.0 8.0 0.00 0.00 0.00 92 1001.7
20260505120355 64 46 2.0 4.0 0.00 0.00 0.00 92 1001.5
20260505115854 64 37 1.0 6.0 0.00 0.00 0.00 92 1001.4
20260505115351 65 40 2.0 9.0 0.00 0.00 0.00 91 1001.6
20260505114849 65 85 4.0 6.0 0.00 0.00 0.00 91 1001.2
20260505114345 65 36 4.0 7.0 0.00 0.00 0.00 90 1001.2
20260505113842 66 42 2.0 6.0 0.00 0.00 0.00 89 1001.0
20260505113338 66 8 2.0 3.0 0.00 0.00 0.00 88 1000.8
20260505112834 66 64 1.0 3.0 0.00 0.00 0.00 88 1000.6
20260505112332 67 16 4.0 4.0 0.00 0.00 0.00 86 1000.7
20260505111827 67 30 2.0 4.0 0.00 0.00 0.00 85 1000.6
20260505111323 68 66 0.0 0.0 0.00 0.00 0.00 85 1000.5
20260505110819 68 41 1.0 1.0 0.00 0.00 0.00 84 1000.7
20260505110317 69 32 0.0 1.0 0.00 0.00 0.00 82 1000.8
20260505101751 70 162 0.0 0.0 0.00 0.00 0.00 80 999.5
20260505101247 71 48 1.0 3.0 0.00 0.00 0.00 78 999.5
20260505100743 71 200 0.0 1.0 0.00 0.00 0.00 78 999.4
20260505100240 71 214 1.0 2.0 0.00 0.00 0.00 77 999.2
20260505095735 71 124 1.0 3.0 0.00 0.00 0.00 77 998.9
20260505095234 72 164 3.0 7.0 0.00 0.00 0.00 77 999.1
20260505094729 72 156 4.0 9.0 0.00 0.00 0.00 77 998.8
20260505094226 72 180 4.0 7.0 0.00 0.00 0.00 77 998.8
20260505093722 72 204 6.0 9.0 0.00 0.00 0.00 77 998.6
20260505093220 72 157 5.0 8.0 0.00 0.00 0.00 77 998.5
20260505092716 72 200 6.0 9.0 0.00 0.00 0.00 77 998.9
20260505092215 72 181 5.0 11.0 0.00 0.00 0.00 77 998.6
20260505091712 72 176 6.0 8.0 0.00 0.00 0.00 77 998.6
20260505091210 71 162 5.0 8.0 0.00 0.00 0.00 77 999.0
20260505090707 72 156 5.0 7.0 0.00 0.00 0.00 77 998.8
20260505090205 72 189 5.0 8.0 0.00 0.00 0.00 77 998.7
20260505085702 72 178 6.0 8.0 0.00 0.00 0.00 77 998.7
20260505085200 72 176 5.0 9.0 0.00 0.00 0.00 77 998.8
20260505084657 71 176 6.0 10.0 0.00 0.00 0.00 77 998.9
20260505084156 71 197 7.0 10.0 0.00 0.00 0.00 78 999.1
20260505083653 71 148 5.0 8.0 0.00 0.00 0.00 78 998.8
20260505083149 71 196 6.0 10.0 0.00 0.00 0.00 78 999.1
20260505082645 71 176 7.0 10.0 0.00 0.00 0.00 77 998.9
20260505082143 72 173 6.0 11.0 0.00 0.00 0.00 77 999.1
20260505081638 71 183 7.0 10.0 0.00 0.00 0.00 78 999.3
20260505081136 71 193 5.0 8.0 0.00 0.00 0.00 78 999.2
20260505080633 71 191 6.0 11.0 0.00 0.00 0.00 78 999.2
20260505080129 71 138 8.0 11.0 0.00 0.00 0.00 78 999.3
20260505075625 71 217 6.0 9.0 0.00 0.00 0.00 78 999.5
20260505075122 71 173 8.0 10.0 0.00 0.00 0.00 78 999.4
20260505074619 71 180 6.0 9.0 0.00 0.00 0.00 78 999.2
20260505074116 71 128 6.0 9.0 0.00 0.00 0.00 78 999.6
20260505073614 71 160 6.0 10.0 0.00 0.00 0.00 78 999.7
20260505073112 71 170 6.0 9.0 0.00 0.00 0.00 78 999.6
20260505072607 71 149 6.0 10.0 0.00 0.00 0.00 78 999.7
20260505072104 71 147 6.0 10.0 0.00 0.00 0.00 78 999.8
20260505071559 71 152 5.0 10.0 0.00 0.00 0.00 77 999.9
20260505071057 71 172 7.0 10.0 0.00 0.00 0.00 78 1000.1
20260505070554 71 200 6.0 9.0 0.00 0.00 0.00 78 1000.1
20260505070050 71 122 5.0 9.0 0.00 0.00 0.00 77 1000.2
20260505065546 71 190 6.0 9.0 0.00 0.00 0.00 77 1000.1
20260505065043 71 162 6.0 9.0 0.00 0.00 0.00 78 1000.5
20260505064540 71 135 7.0 10.0 0.00 0.00 0.00 77 1000.5
20260505064038 71 197 8.0 11.0 0.00 0.00 0.00 77 1000.4
20260505063535 71 180 8.0 10.0 0.00 0.00 0.00 77 1000.6
20260505063031 71 194 6.0 11.0 0.00 0.00 0.00 77 1000.6
20260505062528 71 185 5.0 9.0 0.00 0.00 0.00 78 1000.6
20260505062025 71 160 4.0 11.0 0.00 0.00 0.00 77 1000.8
20260505061523 71 175 5.0 9.0 0.00 0.00 0.00 77 1000.6
20260505061020 71 178 6.0 9.0 0.00 0.00 0.00 78 1000.8
20260505060518 71 170 7.0 9.0 0.00 0.00 0.00 78 1000.8
20260505060014 71 123 7.0 11.0 0.00 0.00 0.00 77 1000.7
20260505055509 71 178 5.0 8.0 0.00 0.00 0.00 77 1001.1
20260505055006 71 182 7.0 9.0 0.00 0.00 0.00 77 1000.9
20260505054504 72 174 5.0 10.0 0.00 0.00 0.00 76 1000.9
20260505054002 71 196 8.0 11.0 0.00 0.00 0.00 76 1000.8
20260505053459 72 181 6.0 9.0 0.00 0.00 0.00 76 1001.0
20260505052955 72 174 7.0 9.0 0.00 0.00 0.00 76 1000.8
20260505052453 72 164 9.0 11.0 0.00 0.00 0.00 76 1001.2
20260505051949 72 142 6.0 10.0 0.00 0.00 0.00 76 1001.1
20260505051446 72 189 6.0 8.0 0.00 0.00 0.00 76 1001.3
20260505050945 72 137 6.0 9.0 0.00 0.00 0.00 76 1001.4
20260505050443 72 159 6.0 9.0 0.00 0.00 0.00 75 1001.2
20260505041410 73 188 5.0 9.0 0.00 0.00 0.00 74 1001.9
20260505040907 73 199 6.0 8.0 0.00 0.00 0.00 74 1002.0
20260505040405 73 194 5.0 7.0 0.00 0.00 0.00 74 1001.8
20260505035901 73 191 5.0 11.0 0.00 0.00 0.00 73 1002.0
20260505035357 73 137 5.0 8.0 0.00 0.00 0.00 73 1002.0
20260505034855 73 194 7.0 13.0 0.00 0.00 0.00 72 1002.0
20260505034351 74 182 7.0 13.0 0.00 0.00 0.00 72 1001.7
20260505033848 74 186 8.0 13.0 0.00 0.00 0.00 72 1001.8
20260505033345 74 168 4.0 11.0 0.00 0.00 0.00 72 1001.8
20260505032843 74 172 4.0 9.0 0.00 0.00 0.00 72 1001.7
20260505032339 74 177 8.0 11.0 0.00 0.00 0.00 71 1001.7
20260505031837 74 178 6.0 9.0 0.00 0.00 0.00 71 1001.7
20260505031333 74 163 7.0 10.0 0.00 0.00 0.00 71 1001.6
20260505030831 74 177 6.0 10.0 0.00 0.00 0.00 71 1001.6
20260505030326 75 151 6.0 10.0 0.00 0.00 0.00 70 1001.7
20260505025822 75 141 7.0 9.0 0.00 0.00 0.00 70 1001.5
20260505025320 75 153 8.0 9.0 0.00 0.00 0.00 70 1001.5
20260505024818 75 185 8.0 11.0 0.00 0.00 0.00 70 1001.4
20260505024315 75 174 6.0 10.0 0.00 0.00 0.00 70 1001.5
20260505023812 75 137 8.0 11.0 0.00 0.00 0.00 69 1001.3
20260505023309 75 175 6.0 9.0 0.00 0.00 0.00 69 1001.4
20260505022807 75 149 6.0 13.0 0.00 0.00 0.00 70 1001.4
20260505022304 75 164 9.0 14.0 0.00 0.00 0.00 69 1001.1
20260505021800 74 152 8.0 13.0 0.00 0.00 0.00 71 1001.1
20260505021257 74 154 4.0 9.0 0.00 0.00 0.00 71 1001.2
20260505020753 73 110 9.0 11.0 0.00 0.00 0.00 73 1001.2
20260505020248 74 159 7.0 10.0 0.00 0.00 0.00 73 1001.1
20260505015746 75 163 6.0 13.0 0.00 0.00 0.00 71 1001.4
20260505015243 76 150 7.0 10.0 0.00 0.00 0.00 67 1001.2
20260505014740 76 136 6.0 10.0 0.00 0.00 0.00 68 1001.3
20260505014237 76 156 6.0 7.0 0.00 0.00 0.00 67 1001.1
20260505013733 76 156 6.0 9.0 0.00 0.00 0.00 67 1001.1
20260505013231 76 135 4.0 11.0 0.00 0.00 0.00 67 1001.3
20260505012729 76 158 6.0 9.0 0.00 0.00 0.00 67 1001.2
20260505012226 76 188 5.0 10.0 0.00 0.00 0.00 66 1001.2
20260505011721 76 149 6.0 11.0 0.00 0.00 0.00 66 1001.5
20260505011219 76 167 5.0 10.0 0.00 0.00 0.00 65 1001.3
20260505010714 77 150 6.0 11.0 0.00 0.00 0.00 65 1001.3
20260505010211 77 173 6.0 8.0 0.00 0.00 0.00 65 1001.6
20260505005707 77 162 6.0 9.0 0.00 0.00 0.00 65 1001.3
20260505005205 77 150 5.0 9.0 0.00 0.00 0.00 64 1001.2
20260505004702 77 160 6.0 9.0 0.00 0.00 0.00 64 1001.5
20260505004158 77 166 7.0 9.0 0.00 0.00 0.00 63 1001.3
20260505003656 77 167 4.0 10.0 0.00 0.00 0.00 63 1001.6
20260505003153 78 153 6.0 11.0 0.00 0.00 0.00 63 1001.5
20260505002649 78 194 10.0 13.0 0.00 0.00 0.00 62 1001.5
20260505002147 78 179 7.0 14.0 0.00 0.00 0.00 62 1001.6
20260505001644 78 130 6.0 9.0 0.00 0.00 0.00 63 1001.7
20260505001142 78 188 4.0 10.0 0.00 0.00 0.00 62 1001.4
20260505000638 79 160 8.0 11.0 0.00 0.00 0.00 61 1001.6
20260505000137 79 143 6.0 10.0 0.00 0.00 0.00 61 1001.5
20260504235632 79 157 4.0 14.0 0.00 0.00 0.00 61 1001.6
20260504235129 78 150 4.0 8.0 0.00 0.00 0.00 62 1001.6
20260504234626 78 193 6.0 13.0 0.00 0.00 0.00 61 1001.5
20260504234124 79 180 6.0 11.0 0.00 0.00 0.00 61 1001.8
20260504233619 79 159 7.0 11.0 0.00 0.00 0.00 61 1001.7
20260504233115 78 165 4.0 8.0 0.00 0.00 0.00 62 1002.1
20260504232613 78 164 5.0 13.0 0.00 0.00 0.00 61 1002.1
20260504232110 78 159 6.0 10.0 0.00 0.00 0.00 61 1002.1
20260504231606 79 142 6.0 11.0 0.00 0.00 0.00 61 1002.3
20260504231103 79 145 7.0 9.0 0.00 0.00 0.00 61 1002.3
20260504230559 79 185 6.0 9.0 0.00 0.00 0.00 60 1002.4
20260504230058 79 148 6.0 9.0 0.00 0.00 0.00 60 1002.5
20260504225555 79 170 6.0 8.0 0.00 0.00 0.00 60 1002.4
20260504225052 79 170 5.0 11.0 0.00 0.00 0.00 60 1002.4
20260504224548 79 178 9.0 11.0 0.00 0.00 0.00 60 1002.6
20260504224046 79 200 8.0 9.0 0.00 0.00 0.00 59 1002.4
20260504223543 79 197 5.0 11.0 0.00 0.00 0.00 59 1002.5
20260504223038 80 205 8.0 10.0 0.00 0.00 0.00 57 1002.7
20260504222535 80 180 5.0 10.0 0.00 0.00 0.00 57 1002.6
20260504222033 79 184 8.0 10.0 0.00 0.00 0.00 58 1002.8
20260504221530 79 168 7.0 11.0 0.00 0.00 0.00 57 1002.6
20260504221026 79 175 8.0 11.0 0.00 0.00 0.00 58 1002.8
20260504220523 79 157 6.0 9.0 0.00 0.00 0.00 58 1002.7
20260504220020 80 157 7.0 9.0 0.00 0.00 0.00 56 1003.1
20260504215516 79 163 4.0 9.0 0.00 0.00 0.00 57 1003.1
20260504215014 79 205 6.0 11.0 0.00 0.00 0.00 57 1003.2
20260504214510 79 166 6.0 9.0 0.00 0.00 0.00 57 1003.2
20260504214006 79 165 6.0 14.0 0.00 0.00 0.00 56 1003.4